Wind_Speed
42 41 39 38 37 37 36 34 33 33 34 34 33 33 33 33 33 34 34 34 35 35 35 35 36 38 39 40 41 43 45 46 46 47 49 50 51 53 55 57 59 61 63
42 41 40 39 38 37 36 35 34 34 34 34 33 33 33 34 34 34 34 34 34 34 35 35 36 38 39 41 42 43 45 46 47 48 49 50 52 54 56 58 60 62 64
43 42 41 40 39 37 36 36 36 35 35 34 34 34 34 34 34 34 33 34 34 35 35 36 37 39 40 41 42 43 44 46 47 48 50 51 53 55 57 59 61 63 65
44 43 42 40 39 38 37 37 36 35 35 35 35 35 35 34 34 33 33 34 35 35 35 36 37 39 40 41 42 43 44 46 48 49 50 52 54 56 57 60 62 64 64
45 44 43 41 40 40 39 38 37 35 35 36 35 35 34 34 33 33 34 34 34 34 35 36 37 39 40 41 42 43 44 46 47 49 51 53 54 56 59 61 63 63 62
46 44 43 42 41 40 39 38 38 37 36 35 35 35 34 34 33 33 33 33 33 34 35 36 37 38 40 40 42 43 45 46 47 49 51 53 55 57 60 62 62 62 60
44 44 44 42 41 40 39 39 39 38 37 36 35 34 34 34 33 32 32 33 33 33 34 36 37 38 39 40 41 43 45 46 48 50 51 54 56 58 60 62 61 60 59
44 43 43 42 41 40 40 40 39 38 37 36 35 34 34 33 32 32 32 32 32 33 34 35 36 38 39 40 41 43 45 47 49 51 53 55 57 59 60 60 59 59 58
44 44 43 42 41 40 39 38 38 38 37 36 35 33 32 31 31 31 31 31 31 32 33 35 36 37 38 40 42 44 45 47 49 51 53 56 58 59 59 59 58 58 57
44 43 43 42 41 39 38 37 36 36 36 34 33 32 31 30 29 30 30 30 31 31 33 34 36 37 38 40 42 44 45 47 49 52 54 56 58 58 58 58 58 57 57
44 43 42 41 40 38 37 37 36 35 33 32 30 30 29 29 29 29 29 30 30 31 33 34 35 37 38 40 42 44 45 47 49 52 55 57 58 57 57 58 58 57 56
44 42 41 40 39 38 37 37 35 33 31 30 29 29 28 28 28 28 29 29 30 32 33 34 35 37 38 40 41 44 45 47 50 52 55 57 56 56 57 58 57 56 56
43 41 40 39 38 37 36 34 32 31 30 29 29 28 27 27 27 28 28 29 30 31 32 34 35 37 38 39 42 44 46 47 50 53 55 56 55 56 57 57 56 56 55
42 41 39 38 37 35 33 32 30 29 29 29 28 27 26 26 27 27 28 29 30 31 32 33 35 36 37 39 42 43 45 48 51 54 55 55 54 55 57 56 54 54 54
42 41 39 37 35 34 32 31 29 29 29 28 27 26 25 25 26 27 28 29 30 31 32 33 34 36 37 39 41 43 45 48 52 54 55 54 54 55 55 54 53 52 51
41 40 38 36 34 33 32 31 30 30 29 28 27 26 25 26 27 27 28 28 30 30 31 32 34 36 37 39 41 43 46 49 52 54 54 53 54 54 54 52 51 50 49
41 39 38 36 35 34 32 31 30 29 29 27 26 26 26 26 26 27 27 28 29 30 31 32 34 35 37 39 41 44 46 49 52 53 53 53 53 52 52 50 49 49 47
41 40 38 36 34 34 33 32 30 29 28 27 27 26 26 26 26 26 27 28 28 29 31 32 33 35 37 39 42 44 47 49 51 52 52 52 52 51 50 49 48 47 46
41 40 38 36 35 34 33 31 30 30 29 27 26 26 26 25 26 26 27 27 28 30 31 32 34 36 38 40 42 45 47 49 51 51 51 51 50 49 48 48 47 46 43
40 39 37 36 35 34 33 32 31 30 28 27 27 26 25 25 26 26 26 27 29 29 30 32 34 36 38 40 43 45 47 49 50 50 50 50 48 47 47 47 46 44 41
40 39 37 35 34 33 32 32 31 29 28 28 27 26 25 25 25 26 27 27 28 29 30 32 34 36 38 40 43 45 47 48 48 49 49 48 47 46 46 46 44 42 40
39 38 36 34 33 32 32 32 31 29 28 28 26 25 25 25 26 26 27 27 28 29 31 32 33 35 38 40 43 45 46 47 47 48 48 47 46 45 45 44 42 40 38
38 37 36 34 33 32 31 31 30 29 29 27 26 25 26 26 26 26 27 27 28 29 30 31 33 35 38 40 43 44 45 46 46 46 47 47 46 45 44 43 40 38 37
38 37 36 34 33 32 31 30 30 29 28 26 25 25 26 26 26 26 26 27 28 28 29 31 33 35 38 40 42 43 44 45 46 46 46 46 45 44 43 41 39 37 36
37 36 36 34 34 33 32 31 29 28 27 26 26 26 26 25 25 25 25 26 27 28 29 31 33 36 38 40 41 43 44 45 45 45 45 45 44 43 41 39 37 35 34
37 36 36 35 33 33 32 31 29 27 27 26 26 25 25 25 25 25 25 26 27 27 29 31 34 37 38 39 41 42 44 45 45 44 44 43 42 41 39 37 35 34 32
Wind_Direction
227 229 232 235 238 241 243 246 249 251 254 258 262 265 269 272 276 279 282 285 287 290 293 296 298 300 302 304 306 308 310 311 312 313 314 314 315 316 316 316 317 316 317
227 229 231 234 237 241 243 246 249 251 254 257 261 265 268 272 275 278 280 284 286 289 292 295 297 300 303 305 307 309 310 311 312 313 315 315 316 316 316 317 318 318 318
227 229 230 233 236 239 243 246 248 250 253 256 260 264 268 271 273 276 279 283 285 289 292 295 297 300 303 305 307 309 310 312 313 314 315 316 316 317 317 318 319 319 319
228 229 230 233 236 238 242 245 247 250 252 256 260 263 266 269 271 275 279 282 285 288 291 295 298 301 303 306 307 309 311 312 314 315 316 316 317 318 318 319 320 321 320
227 229 231 232 235 238 241 244 246 248 252 255 258 262 265 267 271 275 278 281 285 288 292 295 298 301 304 306 308 309 311 312 314 315 316 317 317 318 319 320 321 322 322
227 229 231 233 235 237 240 243 245 248 251 254 257 260 262 266 270 274 278 282 285 288 292 295 299 302 304 307 308 310 312 313 314 316 316 317 318 319 320 322 322 322 322
227 229 231 233 235 236 238 242 245 248 250 253 255 258 261 265 270 274 279 281 285 289 292 296 299 303 305 307 309 311 312 314 316 316 317 319 320 321 322 323 323 324 324
227 228 229 231 234 237 239 241 244 246 248 251 254 258 262 265 270 274 278 282 286 290 294 297 300 303 305 308 310 311 314 315 317 317 319 320 321 322 323 324 324 324 325
227 228 229 231 234 237 239 242 243 245 247 249 253 256 260 265 269 274 277 282 286 290 295 298 300 303 306 308 310 313 315 316 317 318 320 321 323 323 324 324 325 326 326
227 228 230 231 232 234 238 240 242 244 246 249 251 256 260 265 269 273 278 282 287 292 295 298 301 304 306 309 312 314 316 317 318 320 321 323 324 324 324 325 326 326 326
225 227 229 229 231 233 235 238 240 243 246 249 252 255 260 265 269 274 278 283 287 291 295 299 302 305 307 310 313 315 317 318 320 321 323 324 325 325 325 326 326 326 326
222 224 226 229 230 232 234 236 239 241 244 247 251 255 259 264 269 274 279 283 287 291 296 300 303 306 309 311 314 316 318 319 321 323 324 325 326 325 326 326 327 326 327
221 222 224 226 229 231 233 236 238 241 244 247 251 254 258 264 269 274 279 283 288 292 297 300 304 307 310 313 315 318 319 321 322 324 325 326 326 326 327 327 327 327 328
220 222 223 226 228 230 232 234 237 240 243 247 250 254 258 264 270 274 279 284 289 293 297 301 305 308 311 314 316 318 320 322 324 325 326 327 327 327 328 328 328 328 329
221 223 224 225 225 227 229 231 235 239 243 246 249 253 258 265 270 275 281 286 290 294 298 302 306 310 312 315 318 319 321 323 325 326 328 328 328 328 329 329 329 330 331
220 221 223 223 225 228 230 232 236 240 243 247 250 255 260 266 271 277 282 286 291 295 299 303 307 310 313 316 319 320 322 324 326 328 329 329 328 329 330 330 330 331 332
219 221 222 224 226 228 231 234 237 240 243 246 251 256 261 267 272 278 283 288 292 297 301 305 308 311 314 317 319 321 323 325 327 328 329 329 329 330 331 332 332 332 333
219 220 222 225 226 228 231 234 236 239 242 246 250 256 262 267 273 279 284 290 294 298 303 307 310 313 316 318 320 322 324 325 327 329 330 330 331 331 332 333 333 333 334
219 220 223 224 226 227 230 233 236 238 242 246 250 256 262 268 274 281 286 291 295 299 303 307 310 313 316 319 321 323 324 326 328 329 331 331 331 332 333 333 333 333 334
218 221 223 224 225 227 230 234 237 239 242 245 251 257 263 269 275 282 287 292 296 299 303 307 310 313 316 320 322 324 325 327 328 330 331 332 332 332 333 334 334 334 334
217 220 222 223 225 227 231 233 235 237 241 245 251 256 262 268 275 282 288 292 295 299 303 307 310 314 317 320 323 325 326 328 329 331 332 332 332 332 333 334 334 334 335
216 219 221 224 226 229 231 232 233 236 240 245 250 255 262 269 275 282 287 291 294 299 303 307 311 315 318 321 324 326 327 329 330 331 332 333 332 332 333 334 334 334 334
217 219 220 223 226 229 231 232 233 236 240 244 250 256 263 270 276 281 285 290 295 300 304 307 312 315 318 321 325 327 328 329 330 331 332 332 332 332 333 334 334 334 334
217 219 220 223 225 229 232 233 234 237 240 245 251 257 264 270 274 279 285 290 296 300 303 307 312 316 319 322 325 327 328 329 330 330 331 332 332 332 333 333 333 334 335
216 218 220 222 225 229 231 233 235 237 241 245 251 258 264 269 274 280 285 291 296 299 303 308 313 317 320 323 325 327 328 329 329 330 330 331 332 333 333 333 333 334 335
216 218 220 223 226 228 230 232 235 238 242 247 252 258 264 269 274 279 285 291 295 300 304 309 314 317 320 322 325 327 328 329 329 330 330 331 332 333 334 334 334 335 335
Height
5704 5710 5715 5720 5724 5727 5731 5734 5736 5738 5740 5742 5743 5743 5743 5743 5742 5741 5739 5737 5735 5732 5729 5726 5722 5718 5714 5709 5704 5699 5693 5687 5680 5674 5666 5658 5650 5641 5632 5623 5613 5603 5592
5695 5701 5706 5711 5715 5719 5722 5726 5728 5730 5732 5733 5734 5735 5735 5735 5734 5733 5731 5729 5727 5724 5721 5718 5715 5710 5706 5701 5696 5690 5684 5678 5672 5665 5657 5649 5640 5631 5622 5612 5602 5591 5580
5686 5692 5697 5702 5706 5710 5714 5717 5720 5722 5724 5725 5726 5727 5727 5726 5726 5725 5723 5721 5719 5716 5714 5710 5707 5703 5698 5693 5688 5682 5676 5669 5662 5655 5648 5639 5630 5621 5612 5601 5590 5579 5567
5676 5682 5688 5693 5698 5702 5705 5708 5711 5713 5715 5716 5717 5718 5718 5718 5717 5716 5715 5713 5711 5709 5706 5702 5699 5694 5690 5685 5680 5674 5667 5661 5653 5646 5638 5629 5620 5611 5601 5591 5580 5567 5556
5666 5672 5678 5683 5688 5692 5696 5699 5702 5704 5706 5708 5709 5709 5710 5709 5709 5708 5707 5705 5703 5701 5698 5694 5691 5686 5682 5677 5671 5665 5659 5652 5644 5637 5629 5620 5611 5601 5591 5581 5569 5557 5545
5657 5663 5668 5673 5678 5683 5687 5690 5693 5695 5697 5699 5700 5701 5701 5701 5701 5700 5699 5697 5695 5693 5690 5686 5682 5678 5674 5668 5663 5657 5650 5643 5636 5628 5619 5610 5601 5591 5581 5569 5558 5548 5537
5647 5653 5659 5664 5669 5673 5677 5680 5684 5686 5689 5690 5692 5692 5693 5693 5693 5692 5691 5689 5687 5685 5682 5678 5675 5670 5665 5660 5654 5648 5641 5634 5627 5619 5610 5600 5591 5582 5571 5560 5547 5535 5525
5638 5644 5649 5655 5660 5664 5668 5671 5674 5677 5679 5681 5683 5684 5684 5684 5684 5684 5683 5681 5679 5677 5674 5671 5667 5662 5657 5652 5646 5639 5632 5625 5618 5610 5601 5591 5581 5570 5560 5549 5537 5526 5514
5629 5635 5640 5645 5650 5655 5658 5662 5665 5668 5670 5672 5674 5675 5676 5676 5676 5676 5675 5673 5671 5669 5666 5663 5659 5654 5649 5644 5638 5631 5624 5616 5607 5599 5591 5581 5570 5560 5549 5538 5527 5516 5505
5620 5626 5631 5636 5641 5646 5649 5653 5656 5659 5662 5663 5665 5667 5668 5668 5668 5668 5667 5665 5664 5661 5658 5655 5651 5646 5641 5635 5629 5623 5615 5607 5599 5590 5581 5571 5560 5550 5539 5529 5518 5507 5496
5611 5616 5622 5627 5632 5636 5640 5644 5647 5650 5653 5655 5657 5659 5660 5661 5660 5660 5659 5658 5656 5653 5650 5647 5643 5638 5633 5627 5621 5614 5607 5599 5590 5581 5572 5561 5551 5540 5529 5519 5508 5498 5487
5602 5608 5614 5619 5624 5628 5632 5636 5639 5642 5645 5648 5650 5651 5652 5653 5653 5652 5652 5650 5648 5646 5643 5639 5635 5630 5625 5619 5613 5606 5598 5590 5582 5573 5563 5552 5542 5531 5520 5509 5499 5488 5478
5593 5599 5605 5610 5615 5620 5624 5628 5632 5635 5638 5640 5642 5644 5645 5645 5645 5645 5644 5642 5640 5638 5635 5631 5627 5622 5617 5611 5604 5597 5590 5582 5573 5564 5554 5543 5533 5522 5511 5500 5489 5479 5469
5585 5591 5597 5602 5607 5612 5617 5621 5624 5627 5630 5632 5634 5636 5637 5638 5638 5638 5636 5635 5633 5630 5627 5623 5619 5614 5609 5603 5596 5589 5582 5574 5565 5555 5545 5534 5524 5513 5503 5492 5481 5471 5460
5577 5583 5589 5595 5600 5605 5609 5613 5617 5620 5623 5625 5627 5629 5630 5631 5631 5630 5629 5627 5625 5622 5619 5615 5611 5607 5601 5595 5588 5581 5574 5565 5556 5547 5536 5526 5515 5505 5494 5484 5474 5464 5454
5569 5576 5581 5587 5592 5597 5601 5605 5608 5612 5615 5618 5620 5621 5622 5623 5623 5622 5621 5619 5617 5615 5611 5608 5604 5599 5593 5587 5580 5573 5566 5557 5548 5538 5528 5517 5507 5497 5486 5476 5467 5457 5448
5562 5568 5574 5579 5585 5590 5594 5598 5602 5605 5607 5610 5612 5614 5615 5615 5615 5615 5613 5612 5609 5607 5604 5600 5596 5591 5585 5579 5573 5566 5558 5549 5540 5530 5520 5510 5499 5489 5479 5470 5460 5451 5442
5554 5560 5566 5572 5577 5582 5587 5591 5594 5598 5600 5603 5605 5606 5608 5608 5608 5607 5606 5604 5602 5600 5596 5593 5588 5583 5578 5572 5565 5558 5550 5541 5532 5522 5512 5502 5492 5483 5473 5464 5454 5445 5436
5546 5552 5558 5564 5570 5575 5579 5583 5587 5590 5593 5596 5598 5599 5600 5600 5600 5600 5598 5597 5595 5592 5589 5585 5581 5576 5571 5564 5558 5550 5542 5533 5524 5515 5505 5495 5485 5476 5467 5458 5449 5440 5431
5539 5545 5551 5557 5562 5567 5571 5575 5579 5583 5586 5588 5590 5592 5593 5593 5593 5592 5591 5589 5587 5585 5582 5578 5573 5569 5563 5557 5550 5543 5535 5526 5517 5507 5498 5488 5479 5470 5461 5452 5443 5435 5427
5531 5537 5543 5549 5555 5559 5564 5568 5572 5575 5578 5581 5583 5584 5585 5586 5586 5585 5584 5582 5580 5577 5574 5570 5566 5561 5556 5549 5542 5535 5527 5518 5509 5500 5491 5482 5473 5464 5456 5447 5438 5430 5423
5523 5530 5536 5542 5547 5552 5556 5560 5564 5567 5570 5573 5575 5576 5577 5578 5578 5577 5576 5575 5572 5570 5567 5563 5559 5554 5548 5542 5535 5527 5519 5511 5502 5493 5484 5476 5467 5459 5450 5442 5434 5426 5419
5516 5522 5528 5534 5539 5544 5548 5553 5556 5560 5563 5565 5567 5569 5570 5570 5570 5570 5569 5567 5565 5562 5559 5555 5551 5546 5541 5534 5527 5520 5512 5503 5495 5487 5478 5470 5461 5453 5445 5437 5429 5421 5414
5508 5515 5521 5526 5532 5537 5542 5546 5549 5552 5555 5558 5560 5562 5563 5563 5563 5562 5561 5560 5558 5555 5552 5548 5544 5539 5533 5527 5520 5512 5504 5496 5488 5480 5471 5463 5455 5447 5439 5431 5424 5417 5410
5501 5508 5514 5519 5525 5529 5534 5538 5542 5545 5548 5551 5553 5554 5555 5556 5556 5555 5554 5552 5550 5548 5545 5541 5536 5531 5525 5519 5512 5505 5497 5489 5481 5473 5465 5457 5449 5441 5433 5426 5419 5413 5406
5494 5500 5506 5512 5517 5522 5527 5531 5535 5538 5541 5544 5546 5547 5548 5548 5548 5548 5547 5545 5543 5540 5537 5533 5529 5523 5517 5511 5505 5497 5490 5482 5474 5466 5458 5450 5443 5435 5428 5421 5415 5409 5403